Hourly Weather Bolshie Krugovichi

Today, 19 June, Saturday

Time Temperature Precipitation Wind Pressure Humidity
00:00 +17°C° 0 mm 3 mps 750 mmHg 85%
01:00 +16°C° 0 mm 2 mps 750 mmHg 88%
02:00 +16°C° 0 mm 2 mps 749 mmHg 90%
03:00 +16°C° 0 mm 2 mps 749 mmHg 91%
04:00 +16°C° 0 mm 2 mps 750 mmHg 92%
05:00 +16°C° 0 mm 2 mps 750 mmHg 93%
06:00 +18°C° 0 mm 2 mps 750 mmHg 87%
07:00 +20°C° 0 mm 2 mps 750 mmHg 81%
08:00 +22°C° 0 mm 3 mps 750 mmHg 74%
09:00 +24°C° 0 mm 3 mps 750 mmHg 68%
10:00 +26°C° 0 mm 4 mps 750 mmHg 61%
11:00 +27°C° 0 mm 4 mps 749 mmHg 55%
12:00 +27°C° 0 mm 4 mps 749 mmHg 53%
13:00 +28°C° 0 mm 4 mps 749 mmHg 51%
14:00 +29°C° 0 mm 4 mps 748 mmHg 49%
15:00 +28°C° 0 mm 3 mps 748 mmHg 55%
16:00 +27°C° 0 mm 3 mps 748 mmHg 61%
17:00 +26°C° 0 mm 2 mps 748 mmHg 68%
18:00 +25°C° 0.1 mm 2 mps 748 mmHg 71%
19:00 +24°C° 0.1 mm 2 mps 748 mmHg 75%
20:00 +23°C° 0.1 mm 2 mps 748 mmHg 78%
21:00 +21°C° 0 mm 2 mps 748 mmHg 81%
22:00 +20°C° 0 mm 2 mps 748 mmHg 84%
23:00 +19°C° 0 mm 3 mps 748 mmHg 88%

Tomorrow, 20 June, Sunday

Time Temperature Precipitation Wind Pressure Humidity
00:00 +19°C° 0 mm 2 mps 748 mmHg 90%
01:00 +19°C° 0 mm 2 mps 748 mmHg 92%
02:00 +18°C° 0 mm 2 mps 748 mmHg 94%
03:00 +18°C° 0 mm 2 mps 748 mmHg 95%
04:00 +19°C° 0 mm 2 mps 748 mmHg 95%
05:00 +19°C° 0 mm 2 mps 748 mmHg 96%
06:00 +20°C° 0 mm 3 mps 747 mmHg 89%
07:00 +22°C° 0 mm 3 mps 747 mmHg 83%
08:00 +25°C° 0 mm 4 mps 747 mmHg 76%
09:00 +26°C° 0 mm 4 mps 747 mmHg 70%
10:00 +27°C° 0 mm 5 mps 747 mmHg 64%
11:00 +28°C° 0 mm 5 mps 747 mmHg 58%
12:00 +29°C° 0 mm 5 mps 747 mmHg 56%
13:00 +30°C° 0 mm 5 mps 747 mmHg 54%
14:00 +30°C° 0 mm 4 mps 746 mmHg 53%
15:00 +30°C° 0.2 mm 4 mps 746 mmHg 56%
16:00 +29°C° 0.2 mm 4 mps 746 mmHg 60%
17:00 +28°C° 0.2 mm 4 mps 745 mmHg 64%
18:00 +27°C° 0 mm 4 mps 746 mmHg 69%
19:00 +26°C° 0 mm 4 mps 746 mmHg 73%
20:00 +24°C° 0 mm 3 mps 746 mmHg 78%
21:00 +22°C° 0 mm 3 mps 745 mmHg 82%
22:00 +21°C° 0 mm 3 mps 745 mmHg 85%
23:00 +19°C° 0 mm 3 mps 745 mmHg 88%

Day after tomorrow, 21 June, Monday

Time Temperature Precipitation Wind Pressure Humidity
00:00 +19°C° 0 mm 3 mps 745 mmHg 91%
01:00 +18°C° 0 mm 2 mps 745 mmHg 93%
02:00 +17°C° 0 mm 2 mps 745 mmHg 96%
03:00 +18°C° 0 mm 2 mps 745 mmHg 96%
04:00 +18°C° 0 mm 2 mps 745 mmHg 95%
05:00 +18°C° 0 mm 2 mps 745 mmHg 95%
06:00 +20°C° 0 mm 3 mps 745 mmHg 88%
07:00 +21°C° 0 mm 3 mps 745 mmHg 81%
08:00 +23°C° 0 mm 4 mps 745 mmHg 74%
09:00 +25°C° 0 mm 4 mps 745 mmHg 68%
10:00 +26°C° 0 mm 4 mps 744 mmHg 63%
11:00 +28°C° 0 mm 5 mps 744 mmHg 57%
12:00 +27°C° 0 mm 4 mps 744 mmHg 60%
13:00 +27°C° 0 mm 4 mps 744 mmHg 63%
14:00 +27°C° 0 mm 3 mps 744 mmHg 66%
15:00 +27°C° 0 mm 3 mps 743 mmHg 65%
16:00 +27°C° 0 mm 3 mps 743 mmHg 64%
17:00 +28°C° 0 mm 3 mps 743 mmHg 63%
18:00 +27°C° 0 mm 3 mps 743 mmHg 69%
19:00 +25°C° 0 mm 3 mps 743 mmHg 74%
20:00 +24°C° 0 mm 2 mps 743 mmHg 80%
21:00 +23°C° 0 mm 2 mps 743 mmHg 82%
22:00 +23°C° 0 mm 2 mps 743 mmHg 83%
23:00 +21°C° 0 mm 2 mps 743 mmHg 84%

22 June, Tuesday

Time Temperature Precipitation Wind Pressure Humidity
00:00 +21°C° 0 mm 2 mps 743 mmHg 87%
01:00 +20°C° 0 mm 2 mps 743 mmHg 89%
02:00 +20°C° 0 mm 1 mps 743 mmHg 92%
03:00 +19°C° 0 mm 2 mps 743 mmHg 92%
04:00 +19°C° 0 mm 2 mps 743 mmHg 93%
05:00 +19°C° 0 mm 2 mps 743 mmHg 93%
06:00 +21°C° 0 mm 2 mps 743 mmHg 86%
07:00 +24°C° 0 mm 3 mps 743 mmHg 80%
08:00 +26°C° 0 mm 3 mps 744 mmHg 73%
09:00 +27°C° 0 mm 3 mps 744 mmHg 68%
10:00 +28°C° 0 mm 4 mps 744 mmHg 62%
11:00 +30°C° 0 mm 4 mps 744 mmHg 57%
12:00 +30°C° 0 mm 4 mps 744 mmHg 55%
13:00 +32°C° 0 mm 4 mps 744 mmHg 53%
14:00 +31°C° 0 mm 3 mps 743 mmHg 51%
15:00 +31°C° 0 mm 3 mps 743 mmHg 55%
16:00 +30°C° 0 mm 2 mps 743 mmHg 60%
17:00 +29°C° 0 mm 1 mps 743 mmHg 65%
18:00 +28°C° 0 mm 2 mps 743 mmHg 69%
19:00 +27°C° 0 mm 2 mps 743 mmHg 74%
20:00 +26°C° 0 mm 2 mps 743 mmHg 78%
21:00 +25°C° 0.2 mm 2 mps 744 mmHg 81%
22:00 +24°C° 0.2 mm 2 mps 744 mmHg 85%
23:00 +23°C° 0.2 mm 2 mps 744 mmHg 88%

23 June, Wednesday

Time Temperature Precipitation Wind Pressure Humidity
00:00 +21°C° 0 mm 2 mps 744 mmHg 90%
01:00 +21°C° 0 mm 2 mps 744 mmHg 92%
02:00 +20°C° 0 mm 2 mps 744 mmHg 94%
03:00 +20°C° 0 mm 2 mps 744 mmHg 94%
04:00 +20°C° 0 mm 2 mps 744 mmHg 94%
05:00 +20°C° 0 mm 2 mps 745 mmHg 95%
06:00 +23°C° 0 mm 2 mps 745 mmHg 89%
07:00 +24°C° 0 mm 3 mps 745 mmHg 83%
08:00 +26°C° 0 mm 3 mps 745 mmHg 77%
09:00 +27°C° 0 mm 3 mps 745 mmHg 70%
10:00 +29°C° 0 mm 3 mps 745 mmHg 63%
11:00 +30°C° 0 mm 3 mps 745 mmHg 57%
12:00 +31°C° 0 mm 3 mps 745 mmHg 53%
13:00 +33°C° 0 mm 3 mps 745 mmHg 49%
14:00 +33°C° 0 mm 3 mps 745 mmHg 45%
15:00 +33°C° 0 mm 3 mps 745 mmHg 47%
16:00 +32°C° 0 mm 2 mps 745 mmHg 50%
17:00 +32°C° 0 mm 2 mps 745 mmHg 52%
18:00 +31°C° 0 mm 2 mps 745 mmHg 59%
19:00 +29°C° 0 mm 2 mps 745 mmHg 66%
20:00 +28°C° 0 mm 1 mps 745 mmHg 73%
21:00 +27°C° 0 mm 2 mps 745 mmHg 75%
22:00 +26°C° 0 mm 2 mps 745 mmHg 77%
23:00 +25°C° 0 mm 2 mps 745 mmHg 79%

24 June, Thursday

Time Temperature Precipitation Wind Pressure Humidity
00:00 +24°C° 0 mm 2 mps 745 mmHg 83%
01:00 +23°C° 0 mm 2 mps 745 mmHg 86%
02:00 +21°C° 0 mm 2 mps 745 mmHg 90%
03:00 +21°C° 0.1 mm 2 mps 745 mmHg 90%
04:00 +21°C° 0.1 mm 2 mps 745 mmHg 91%
05:00 +21°C° 0.1 mm 2 mps 746 mmHg 91%
06:00 +24°C° 0 mm 2 mps 746 mmHg 86%
07:00 +25°C° 0 mm 2 mps 746 mmHg 81%
08:00 +27°C° 0 mm 2 mps 746 mmHg 76%
09:00 +28°C° 0 mm 3 mps 746 mmHg 71%
10:00 +29°C° 0 mm 3 mps 746 mmHg 65%
11:00 +31°C° 0 mm 3 mps 746 mmHg 59%
12:00 +31°C° 0.3 mm 3 mps 746 mmHg 58%
13:00 +33°C° 0.3 mm 3 mps 746 mmHg 57%
14:00 +33°C° 0.3 mm 3 mps 746 mmHg 56%
15:00 +31°C° 0.2 mm 3 mps 746 mmHg 59%
16:00 +31°C° 0.2 mm 2 mps 745 mmHg 63%
17:00 +30°C° 0.2 mm 1 mps 745 mmHg 66%
18:00 +28°C° 0.3 mm 1 mps 745 mmHg 72%
19:00 +25°C° 0.3 mm 2 mps 745 mmHg 79%
20:00 +23°C° 0.3 mm 2 mps 745 mmHg 85%
21:00 +21°C° 0 mm 2 mps 745 mmHg 86%
22:00 +21°C° 0 mm 2 mps 745 mmHg 87%
23:00 +20°C° 0 mm 2 mps 744 mmHg 87%
Show more